Location: Unspecified
(0.0000°N, 0.0000°E)
Time: 07:18:27
(UTC+00:00)

SR - Visible Passes

Search period start: 23 November 2014 00:00
Search period end: 03 December 2014 00:00
Orbit: 577 x 887 km, 66.7° (Epoch: 21 November)

Date Brightness Start Highest point End Pass type
(mag) Time Alt. Az. Time Alt. Az. Time Alt. Az.
23 Nov ? 05:10:07 10° SSW 05:15:46 65° WNW 05:21:38 10° N visible
24 Nov ? 04:21:52 10° S 04:27:25 55° ESE 04:33:12 10° NNE visible
25 Nov ? 03:34:36 10° SSE 03:39:06 24° ESE 03:43:43 10° ENE visible
25 Nov ? 05:16:12 10° SW 05:21:02 28° WNW 05:25:59 10° NNW visible
26 Nov ? 04:26:57 10° SSW 04:32:38 64° WNW 04:38:30 10° N visible
27 Nov ? 03:38:40 10° S 03:44:16 56° ESE 03:50:03 10° NNE visible
28 Nov ? 02:51:22 10° SSE 02:55:55 24° ESE 03:00:35 10° ENE visible
28 Nov ? 04:33:02 10° SW 04:37:52 27° WNW 04:42:48 10° NNW visible
